Weather past 2 weeks in Saipan, Northern Mariana Islands

Now
86 °F

Sunny.


Feels Like: 96 °F
Forecast: 78 / 84 °F
Wind: 12 mph from South

Location: Saipan International Airport

Current Time: Jul 30, 2015 at 2:53:14 PM

Latest Report: Jul 30, 2015 at 1:54 PM


Visibility: 10 mi

Pressure: 29.86 "Hg

Humidity: 72%

Dew point: 76 °F

Location of SaipanLocation

Historic Weather in Saipan — Graph

°F

Saipan temperature yesterday

Maximum temperature yesterday: 88 °F (at 1:54 PM)
Minimum temperature yesterday: 80 °F (at 4:54 AM)
Average temperature yesterday: 84 °F

Past Weeks' High & Low Weather Summary

 TemperatureHumidityPressure
High88 °F (Jul 23, 11:54 AM)100% (Jul 18, 10:22 AM)30.05 "Hg (Jul 18, 10:22 AM)
Low77 °F (Jul 18, 6:15 AM)65% (Jul 24, 12:54 PM)29.80 "Hg (Jul 15, 3:54 PM)
Average82 °F82%29.92 "Hg
* Reported Jul 15 12:54 PM — Jul 30 12:54 PM, Saipan, Weather by CustomWeather, © 2015

Note: Actual official high and low records may vary slightly from our data, if they occured in-between our weather recording intervals... More about our weather records

Advertising

Saipan weather history for previous 24 hours

 ConditionsComfort  
Time TempWeatherWind HumidityBarometerVisibility
12:54 PM
Thu, Jul 30
87 °FSunny.13 mph69%29.86 "Hg10 mi
11:54 AM86 °FSunny.13 mph70%29.88 "Hg10 mi
10:54 AM87 °FScattered clouds.7 mph69%29.88 "Hg10 mi
9:54 AM86 °FScattered clouds.7 mph70%29.89 "Hg10 mi
8:54 AM85 °FPassing clouds.7 mph72%29.88 "Hg10 mi
7:54 AM85 °FScattered clouds.6 mph72%29.87 "Hg10 mi
6:54 AM82 °FScattered clouds.7 mph85%29.86 "Hg10 mi
5:54 AM80 °FPassing clouds.5 mph81%29.83 "Hg10 mi
4:54 AM81 °FPassing clouds.3 mph79%29.83 "Hg10 mi
3:54 AM81 °FClear.9 mph79%29.83 "Hg10 mi
2:54 AM81 °FClear.9 mph82%29.85 "Hg10 mi
1:54 AM81 °FPassing clouds.9 mph82%29.86 "Hg10 mi
12:54 AM80 °FPassing clouds.12 mph87%29.88 "Hg10 mi
11:54 PM
Wed, Jul 29
80 °FClear.10 mph85%29.90 "Hg10 mi
10:54 PM80 °FClear.10 mph81%29.91 "Hg10 mi
9:54 PM82 °FClear.9 mph79%29.91 "Hg10 mi
8:54 PM82 °FClear.3 mph79%29.90 "Hg10 mi
7:54 PM82 °FClear.9 mph74%29.88 "Hg10 mi
6:54 PM83 °FClear.13 mph74%29.85 "Hg10 mi
5:54 PM85 °FSunny.14 mph72%29.84 "Hg10 mi
4:54 PM86 °FSunny.16 mph72%29.83 "Hg10 mi
3:54 PM87 °FPassing clouds.7 mph69%29.83 "Hg10 mi
2:54 PM88 °FPassing clouds.8 mph70%29.83 "Hg10 mi
Weather by CustomWeather, © 2015

See weather overviewHow to use our weather pages